Tracking 28790 objects as of 19-Apr-2024
HD Live streaming from Space Station
objects crossing your sky now

STERNULA-1

Track STERNULA-1 now!
10-day predictions


NORAD ID: 55044
Int'l Code: 2023-001AM
Perigee: 480.4 km
Apogee: 493.0 km
Inclination: 97.4 °
Period: 94.2 minutes
Semi major axis: 6857 km
RCS: Unknown
Launch date: January 3, 2023
Source: Denmark (DEN)
Launch site: AIR FORCE EASTERN TEST RANGE (AFETR)
Your satellite tracking list
Your tracking list is empty




NASA's NSSDC Master Catalog

Two Line Element Set (TLE):
1 55044U 23001AM  24109.84299233  .00046920  00000-0  16714-2 0  9992
2 55044  97.4339 171.8348 0009137  34.2530 325.9297 15.28741670 71695
Source of the keplerian elements: AFSPC